Weather History for KMLP - November, 2013

Change the Weather History Date:

Wednesday, November 6, 2013

  Actual Average (K3TH) Record (K3TH)
Temperature  
Mean Temperature 27 °F -  
Max Temperature 30 °F 43 °F 53 °F (1997)
Min Temperature 24 °F 31 °F 28 °F (1998)
Degree Days  
Heating Degree Days 38    
Moisture  
Dew Point 25 °F    
Average Humidity 88    
Maximum Humidity 100    
Minimum Humidity 80    
Precipitation  
Precipitation 0.03 in - - ()
Sea Level Pressure  
Sea Level Pressure 30.21 in    
Wind  
Wind Speed 5 mph (SSW)    
Max Wind Speed 9 mph    
Max Gust Speed 18 mph    
Visibility 4 miles    
Events Fog , Snow    
Averages and records for this station are not official NWS values.
T = Trace of Precipitation, MM = Missing Value Source: NWS Daily Summary

Daily Weather History Graph

Daily Weather History Graph

Search for Another Location

Airport or City:

Trip Planner

Search our weather history database for the weather conditions in past years. The results will help you decide how hot, cold, wet, or windy it might be!

Date:

Astronomy

Nov. 06, 2013 Rise Set
Actual Time 6:34 AM PST 4:17 PM PST
Civil Twilight 6:01 AM PST 4:50 PM PST
Nautical Twilight 5:25 AM PST 5:26 PM PST
Astronomical Twilight 4:49 AM PST 6:02 PM PST
Moon 9:59 AM PST (11/6) 7:21 PM PST (11/6)
Length of Visible Light 10h 48m
Length of Day
9h 43m
Waxing Crescent, 14% of the Moon is Illuminated
Nov 6
Waxing Crescent
Nov 9
First Quarter
Nov 17
Full
Nov 25
Last Quarter
Dec 2
New

Hourly Weather History & Observations

Time (PST) Temp. Windchill Dew Point Humidity Pressure Visibility Wind Dir Wind Speed Gust Speed Precip Events Conditions
12:04 AM 28.4 °F 23.3 °F 26.6 °F 93% 30.04 in 0.5 mi Variable 4.6 mph - 0.00 in Fog , Snow Light Snow
12:12 AM 28.4 °F 20.4 °F 24.8 °F 86% 30.04 in 0.2 mi NW 8.1 mph - 0.00 in Fog , Snow Light Snow
12:53 AM 28.9 °F 23.9 °F 25.0 °F 85% 30.17 in 0.2 mi Variable 4.6 mph - 0.00 in Fog Light Freezing Fog
1:18 AM 28.4 °F 21.2 °F 24.8 °F 86% 30.05 in 0.5 mi Variable 6.9 mph - N/A Fog Light Freezing Fog
1:32 AM 28.4 °F 21.2 °F 24.8 °F 86% 30.05 in 1.5 mi Variable 6.9 mph 17.3 mph N/A   Overcast
1:46 AM 28.4 °F 21.2 °F 24.8 °F 86% 30.06 in 1.2 mi Variable 6.9 mph - N/A   Overcast
1:53 AM 28.9 °F 22.8 °F 25.0 °F 85% 30.19 in 1.8 mi Variable 5.8 mph - N/A   Overcast
2:02 AM 28.4 °F 19.7 °F 24.8 °F 86% 30.06 in 1.0 mi WNW 9.2 mph 18.4 mph N/A   Mist
2:16 AM 28.4 °F 22.2 °F 24.8 °F 86% 30.06 in 1.8 mi Variable 5.8 mph - N/A   Overcast
2:35 AM 28.4 °F 19.7 °F 24.8 °F 86% 30.07 in 3.0 mi WNW 9.2 mph - N/A   Overcast
2:40 AM 28.4 °F 22.2 °F 24.8 °F 86% 30.07 in 1.8 mi Variable 5.8 mph - N/A   Overcast
2:43 AM 28.4 °F 23.3 °F 24.8 °F 86% 30.07 in 1.0 mi Variable 4.6 mph - N/A   Mist
2:45 AM 28.4 °F 22.2 °F 24.8 °F 86% 30.07 in 0.5 mi Variable 5.8 mph - 0.00 in Fog , Snow Light Snow
2:53 AM 28.0 °F 20.0 °F 25.0 °F 88% 30.20 in 0.5 mi WNW 8.1 mph - 0.00 in Fog , Snow Light Snow
3:23 AM 28.4 °F 22.2 °F 24.8 °F 86% 30.08 in 0.2 mi Variable 5.8 mph - 0.00 in Fog , Snow Light Snow
3:53 AM 28.0 °F 21.7 °F 24.1 °F 85% 30.22 in 0.2 mi Variable 5.8 mph - 0.01 in Fog , Snow Light Snow
4:53 AM 28.0 °F 22.8 °F 24.1 °F 85% 30.24 in 0.2 mi Variable 4.6 mph - 0.02 in Fog , Snow Light Snow
5:47 AM 28.4 °F - 24.8 °F 86% 30.13 in 0.5 mi Calm Calm - 0.00 in Fog , Snow Light Snow
5:53 AM 28.0 °F - 24.1 °F 85% 30.25 in 0.8 mi Calm Calm - 0.00 in Snow Light Snow
6:20 AM 28.4 °F - 24.8 °F 86% 30.14 in 1.0 mi Calm Calm - 0.00 in   Mist
6:27 AM 28.4 °F - 24.8 °F 86% 30.14 in 0.2 mi Calm Calm - 0.00 in Fog Light Freezing Fog
6:36 AM 28.4 °F - 24.8 °F 86% 30.14 in 0.2 mi Calm Calm - 0.00 in Fog Light Freezing Fog
6:48 AM 28.4 °F 23.3 °F 24.8 °F 86% 30.15 in 0.5 mi Variable 4.6 mph - 0.00 in Fog Light Freezing Fog
6:53 AM 28.0 °F 24.2 °F 24.1 °F 85% 30.27 in 0.2 mi Variable 3.5 mph - 0.00 in Fog Light Freezing Fog
7:33 AM 28.4 °F - 23.0 °F 80% 30.17 in 1.0 mi Calm Calm - N/A   Haze
7:44 AM 28.4 °F 24.6 °F 24.8 °F 86% 30.17 in 0.5 mi WSW 3.5 mph - N/A Fog Light Freezing Fog
7:53 AM 28.0 °F - 24.1 °F 85% 30.29 in 0.2 mi Calm Calm - N/A Fog Light Freezing Fog
8:00 AM 28.4 °F - 24.8 °F 86% 30.18 in 0.2 mi Calm Calm - 0.00 in Snow Heavy Snow
8:53 AM 28.9 °F - 24.1 °F 82% 30.30 in 0.2 mi Calm Calm - 0.00 in Snow Heavy Snow
9:53 AM 30.0 °F 26.5 °F 25.0 °F 82% 30.30 in 0.2 mi Variable 3.5 mph - 0.00 in   Haze
10:29 AM 30.2 °F - 24.8 °F 80% 30.22 in 1.5 mi Calm Calm - N/A   Haze
10:36 AM 30.2 °F 24.3 °F 24.8 °F 80% 30.22 in 6.0 mi Variable 5.8 mph - N/A   Haze
10:43 AM 30.2 °F - 24.8 °F 80% 30.22 in 9.0 mi Calm Calm - N/A   Overcast
10:53 AM 30.0 °F 26.5 °F 25.0 °F 82% 30.32 in 9.0 mi Variable 3.5 mph - N/A   Overcast
11:02 AM 30.2 °F 26.7 °F 24.8 °F 80% 30.22 in 10.0 mi Variable 3.5 mph - N/A   Overcast
11:26 AM 30.2 °F - 26.6 °F 86% 30.22 in 8.0 mi Calm Calm - N/A   Overcast
11:53 AM 30.0 °F 25.2 °F 25.0 °F 82% 30.17 in 10.0 mi SW 4.6 mph - N/A   Overcast
12:53 PM 28.9 °F 23.9 °F 25.0 °F 85% 30.32 in 10.0 mi WSW 4.6 mph - N/A   Overcast
1:10 PM 28.4 °F 23.3 °F 24.8 °F 86% 30.23 in 10.0 mi Variable 4.6 mph - N/A   Overcast
1:53 PM 28.9 °F 22.8 °F 25.0 °F 85% 30.32 in 10.0 mi Variable 5.8 mph - N/A   Overcast
2:06 PM 28.4 °F 22.2 °F 24.8 °F 86% 30.22 in 10.0 mi Variable 5.8 mph - N/A   Overcast
2:53 PM 28.0 °F 24.2 °F 24.1 °F 85% 30.34 in 10.0 mi Variable 3.5 mph - N/A   Overcast
3:53 PM 27.0 °F 23.0 °F 24.1 °F 89% 30.33 in 10.0 mi Variable 3.5 mph - N/A   Overcast
4:46 PM 26.6 °F 21.2 °F 24.8 °F 93% 30.23 in 10.0 mi SW 4.6 mph - N/A   Overcast
4:53 PM 26.1 °F 20.5 °F 24.1 °F 92% 30.34 in 10.0 mi SW 4.6 mph - N/A   Overcast
5:35 PM 24.8 °F 20.5 °F 24.8 °F 100% 30.23 in 10.0 mi Variable 3.5 mph - N/A   Overcast
5:53 PM 25.0 °F 20.7 °F 24.1 °F 96% 30.35 in 10.0 mi SSW 3.5 mph - N/A   Mostly Cloudy
6:13 PM 24.8 °F 20.5 °F 24.8 °F 100% 30.24 in 10.0 mi SSW 3.5 mph - N/A   Overcast
6:45 PM 24.8 °F 20.5 °F 23.0 °F 93% 30.23 in 2.0 mi Variable 3.5 mph - N/A   Overcast
6:50 PM 24.8 °F 19.1 °F 23.0 °F 93% 30.23 in 1.2 mi South 4.6 mph - N/A   Overcast
6:53 PM 25.0 °F 19.3 °F 24.1 °F 96% 30.35 in 1.2 mi Variable 4.6 mph - N/A   Overcast
7:00 PM 24.8 °F 19.1 °F 24.8 °F 100% 30.23 in 2.0 mi South 4.6 mph - N/A   Overcast
7:13 PM 24.8 °F 19.1 °F 24.8 °F 100% 30.23 in 4.0 mi South 4.6 mph - N/A   Overcast
7:51 PM 24.8 °F 16.9 °F 24.8 °F 100% 30.23 in 1.8 mi SSE 6.9 mph - N/A   Overcast
7:53 PM 26.1 °F 19.4 °F 24.1 °F 92% 30.34 in 1.5 mi South 5.8 mph - N/A   Overcast
8:09 PM 26.6 °F 19.1 °F 24.8 °F 93% 30.23 in 3.0 mi South 6.9 mph - N/A   Overcast
8:31 PM 26.6 °F 20.0 °F 24.8 °F 93% 30.23 in 10.0 mi South 5.8 mph - N/A   Overcast
8:53 PM 26.1 °F 18.4 °F 24.1 °F 92% 30.33 in 6.0 mi South 6.9 mph - N/A   Overcast
9:03 PM 26.6 °F 18.2 °F 24.8 °F 93% 30.22 in 1.8 mi South 8.1 mph - N/A   Overcast
9:17 PM 26.6 °F 18.2 °F 24.8 °F 93% 30.22 in 3.0 mi South 8.1 mph - N/A   Overcast
9:33 PM 26.6 °F 18.2 °F 24.8 °F 93% 30.22 in 6.0 mi South 8.1 mph - N/A   Overcast
9:53 PM 27.0 °F 18.7 °F 25.0 °F 92% 30.31 in 10.0 mi South 8.1 mph - N/A   Overcast
10:23 PM 26.6 °F 18.2 °F 24.8 °F 93% 30.22 in 8.0 mi South 8.1 mph - N/A   Overcast
10:53 PM 28.0 °F 20.0 °F 25.0 °F 88% 30.30 in 9.0 mi South 8.1 mph - N/A   Overcast
11:07 PM 28.4 °F 20.4 °F 24.8 °F 86% 30.20 in 7.0 mi South 8.1 mph - N/A   Overcast
11:34 PM 28.4 °F 20.4 °F 24.8 °F 86% 30.19 in 1.8 mi South 8.1 mph - N/A   Overcast
11:53 PM 28.0 °F 19.3 °F 25.0 °F 88% 30.28 in 1.0 mi South 9.2 mph - N/A   Mist